STARLINK-36931

Last updated on Mon Mar 30 2026 00:02:05 GMT+0000 (Coordinated Universal Time)

1 68000U 26039Q 26088.16668981 -.01912642 00000+0 -56301-1 0 9995 2 68000 43.0001 298.6352 0001606 269.5132 159.4979 15.37800989 6000
UTC large
Height (km)
Speed (km/s)
/
Latitude / Longitude
Inclination (degrees)
Orbital Period (minutes)
Azimuth
Elevation
Range (km)
Doppler Factor

Next 0 passes for location: London (51.5072 / 0.1276)

Sorry there are no passes over London.